Airfield :
LOGIN :

Register | Disclaimer

   EN    FR    IT 

 










Legend :    VFR   Marginal VFR   IFR   Intensive IFR   Very Intensive IFR
Visi :
Ceiling :
>= 8 km
>= 3000ft
5 to 8 km
1000 to 3000 ft
1500m to 5 km
500 to 1000 ft
800 to 1500m
200 to 500 ft
< 800m
< 200 ft
Symbols :   Thunderstorms  Fog  Heavy snow  Heavy precipitations  Wind > 20 kt
SIGMETs :     Misc.  Thunderstorms  Icing  Turbulence  Mountain Waves  Volcanic Ashes







- Airport Elevation : 640 ft
- IATA code : AOC


EDAC - Altenburg-Nobitz

CURRENT METAR :
  • 210350Z AUTO 07008KT 040V100 9000 // OVC035/// 01/M01 Q1015

EXPIRED METARs :
  • 210320Z AUTO 06007KT 9000 // FEW021/// SCT024/// OVC036/// 01/M01 Q1015
  • 210250Z AUTO 07006KT 030V100 9000 // OVC020/// 01/M01 Q1015
  • 210220Z AUTO 06007KT 9999 // OVC020/// 01/M01 Q1015
  • 210150Z AUTO 07008KT 030V090 9999 // OVC020/// 01/M01 Q1015
  • 210120Z AUTO 07007KT 040V100 9999 // OVC021/// 01/M01 Q1015

Expired Forecast.
No reported NOTAMs for that airfield.



MET'MAP, your aeronautical weather chart ! - Copyright ORBIFLY December 2007 - Disclaimer

ORBIFLY MET'MAP TEAM :

Programming & Development : Alexandra Zaïnal
Concept & Development : Baudouin d'Aumeries
Co-Development & Prog : Marc-Olivier Méhu
Technical & hardware support : Manuel Goepfert

Contact : metmap@orbifly.com




SOURCES & CREDITS :

   NOAA